Location: Buckeye Ditch
(40.9104°N, 122.9517°W)
Time: 05:43:15
(UTC+00:00)

Transit 2A Rocket - Visible Passes

Search period start: 06 June 2026 00:00
Search period end: 16 June 2026 00:00
Orbit: 588 x 894 km, 66.7° (Epoch: 5 June)

Date Brightness Start Highest point End Pass type
(mag) Time Alt. Az. Time Alt. Az. Time Alt. Az.
6 Jun 4.7 06:24:50 10° NNW 06:29:10 56° ENE 06:29:39 53° E visible
6 Jun 7.1 08:09:00 10° W 08:09:19 11° W 08:09:19 11° W visible
7 Jun 5.8 05:39:25 10° N 05:43:17 29° NE 05:45:01 22° E visible
7 Jun 6.1 07:21:51 10° NW 07:24:41 25° W 07:24:41 25° W visible
8 Jun 6.6 04:54:22 10° N 04:57:13 17° NE 05:00:01 10° E visible
8 Jun 4.7 06:35:39 10° NW 06:39:55 56° WSW 06:40:04 55° SW visible
9 Jun 4.5 05:49:52 10° NNW 05:54:13 69° ENE 05:55:29 43° SE visible
10 Jun 5.5 05:04:22 10° NNW 05:08:23 34° NE 05:10:57 18° ESE visible
10 Jun 6.2 06:47:08 10° WNW 06:50:26 22° WSW 06:50:38 21° WSW visible
11 Jun 6.4 04:19:11 10° N 04:22:22 19° NE 04:25:29 10° E visible
11 Jun 5.1 06:00:47 10° NW 06:04:54 45° WSW 06:06:07 35° SSW visible
12 Jun 4.4 05:14:53 10° NNW 05:19:15 85° ENE 05:21:40 25° SSE visible
13 Jun 5.2 04:29:19 10° NNW 04:33:27 41° NE 04:37:14 11° SE visible
13 Jun 6.5 06:12:30 10° WNW 06:15:22 18° WSW 06:16:56 15° SW visible
14 Jun 5.6 05:25:55 10° NW 05:29:54 36° WSW 05:32:33 18° S visible
15 Jun 4.5 04:39:56 10° NNW 04:44:16 79° WSW 04:48:13 12° SSE visible
